When you browse on this site, cookies collect data to enhance your experience and personalize the content and advertising you see.
Visit our Privacy Policy to learn more. By continuing to use the site, you agree to this use of cookies and data.
  • In France
  • List of Countries
  • For 7 days
  • Water Temperature
  • Satellite Maps
  • Weather Map
  • Weather Widgets
  • user-avatar
    Login

    Hourly Weather Kalgoorlie

    Today, 24 March, Sunday

    Time Temperature Precipitation Wind Pressure Humidity
    00:00 +20°C° 0 mm 3 mps 729 mmHg 76%
    01:00 +19°C° 0 mm 3 mps 729 mmHg 78%
    02:00 +19°C° 0 mm 2 mps 729 mmHg 78%
    03:00 +19°C° 0 mm 2 mps 729 mmHg 79%
    04:00 +18°C° 0 mm 2 mps 729 mmHg 79%
    05:00 +18°C° 0 mm 3 mps 729 mmHg 79%
    06:00 +18°C° 0 mm 3 mps 730 mmHg 74%
    07:00 +18°C° 0 mm 4 mps 730 mmHg 68%
    08:00 +19°C° 0 mm 4 mps 731 mmHg 62%
    09:00 +20°C° 0 mm 5 mps 730 mmHg 54%
    10:00 +21°C° 0 mm 5 mps 730 mmHg 47%
    11:00 +23°C° 0 mm 5 mps 730 mmHg 40%
    12:00 +25°C° 0 mm 5 mps 730 mmHg 35%
    13:00 +26°C° 0 mm 5 mps 729 mmHg 31%
    14:00 +27°C° 0 mm 5 mps 729 mmHg 26%
    15:00 +27°C° 0 mm 6 mps 729 mmHg 27%
    16:00 +27°C° 0 mm 7 mps 729 mmHg 28%
    17:00 +27°C° 0 mm 7 mps 730 mmHg 29%
    18:00 +23°C° 0 mm 8 mps 730 mmHg 37%
    19:00 +21°C° 0 mm 8 mps 730 mmHg 46%
    20:00 +18°C° 0 mm 9 mps 731 mmHg 54%
    21:00 +17°C° 0 mm 8 mps 731 mmHg 56%
    22:00 +16°C° 0 mm 8 mps 732 mmHg 58%
    23:00 +15°C° 0 mm 8 mps 732 mmHg 60%

    Tomorrow, 25 March, Monday

    Time Temperature Precipitation Wind Pressure Humidity
    00:00 +15°C° 0 mm 7 mps 732 mmHg 62%
    01:00 +14°C° 0 mm 7 mps 732 mmHg 63%
    02:00 +12°C° 0 mm 7 mps 732 mmHg 65%
    03:00 +12°C° 0 mm 7 mps 733 mmHg 66%
    04:00 +11°C° 0 mm 7 mps 733 mmHg 67%
    05:00 +11°C° 0 mm 7 mps 733 mmHg 68%
    06:00 +12°C° 0 mm 7 mps 733 mmHg 66%
    07:00 +12°C° 0 mm 7 mps 734 mmHg 64%
    08:00 +12°C° 0 mm 8 mps 734 mmHg 62%
    09:00 +15°C° 0 mm 7 mps 734 mmHg 54%
    10:00 +17°C° 0 mm 7 mps 734 mmHg 47%
    11:00 +20°C° 0 mm 7 mps 734 mmHg 39%
    12:00 +21°C° 0 mm 7 mps 734 mmHg 36%
    13:00 +23°C° 0 mm 7 mps 733 mmHg 32%
    14:00 +24°C° 0 mm 7 mps 733 mmHg 29%
    15:00 +24°C° 0 mm 7 mps 733 mmHg 30%
    16:00 +23°C° 0 mm 7 mps 733 mmHg 32%
    17:00 +23°C° 0 mm 7 mps 733 mmHg 34%
    18:00 +22°C° 0 mm 7 mps 733 mmHg 37%
    19:00 +21°C° 0 mm 7 mps 734 mmHg 41%
    20:00 +20°C° 0 mm 7 mps 734 mmHg 44%
    21:00 +18°C° 0 mm 7 mps 735 mmHg 48%
    22:00 +17°C° 0 mm 7 mps 735 mmHg 52%
    23:00 +16°C° 0 mm 7 mps 735 mmHg 55%

    Day after tomorrow, 26 March, Tuesday

    Time Temperature Precipitation Wind Pressure Humidity
    00:00 +16°C° 0 mm 7 mps 735 mmHg 58%
    01:00 +15°C° 0 mm 7 mps 735 mmHg 62%
    02:00 +15°C° 0 mm 7 mps 735 mmHg 65%
    03:00 +14°C° 0 mm 7 mps 735 mmHg 67%
    04:00 +14°C° 0 mm 6 mps 735 mmHg 69%
    05:00 +14°C° 0 mm 6 mps 735 mmHg 71%
    06:00 +14°C° 0 mm 7 mps 735 mmHg 69%
    07:00 +15°C° 0 mm 7 mps 735 mmHg 67%
    08:00 +15°C° 0 mm 7 mps 735 mmHg 65%
    09:00 +17°C° 0 mm 7 mps 735 mmHg 57%
    10:00 +20°C° 0 mm 7 mps 735 mmHg 48%
    11:00 +22°C° 0 mm 7 mps 735 mmHg 40%
    12:00 +24°C° 0 mm 7 mps 734 mmHg 36%
    13:00 +26°C° 0 mm 7 mps 734 mmHg 31%
    14:00 +28°C° 0 mm 7 mps 733 mmHg 27%
    15:00 +28°C° 0 mm 6 mps 733 mmHg 26%
    16:00 +28°C° 0 mm 6 mps 733 mmHg 26%
    17:00 +28°C° 0 mm 6 mps 733 mmHg 25%
    18:00 +27°C° 0 mm 6 mps 733 mmHg 28%
    19:00 +26°C° 0 mm 5 mps 733 mmHg 30%
    20:00 +25°C° 0 mm 5 mps 734 mmHg 32%
    21:00 +23°C° 0 mm 5 mps 734 mmHg 34%
    22:00 +23°C° 0 mm 5 mps 734 mmHg 36%
    23:00 +22°C° 0 mm 6 mps 734 mmHg 37%

    27 March, Wednesday

    Time Temperature Precipitation Wind Pressure Humidity
    00:00 +22°C° 0 mm 5 mps 734 mmHg 39%
    01:00 +21°C° 0 mm 5 mps 733 mmHg 40%
    02:00 +21°C° 0 mm 5 mps 733 mmHg 41%
    03:00 +20°C° 0 mm 5 mps 732 mmHg 43%
    04:00 +20°C° 0 mm 5 mps 732 mmHg 44%
    05:00 +19°C° 0 mm 5 mps 732 mmHg 45%
    06:00 +20°C° 0 mm 5 mps 733 mmHg 44%
    07:00 +21°C° 0 mm 5 mps 733 mmHg 42%
    08:00 +22°C° 0 mm 5 mps 733 mmHg 40%
    09:00 +22°C° 0 mm 4 mps 733 mmHg 39%
    10:00 +23°C° 0 mm 4 mps 733 mmHg 37%
    11:00 +23°C° 0 mm 4 mps 733 mmHg 35%
    12:00 +24°C° 0 mm 3 mps 732 mmHg 35%
    13:00 +24°C° 0 mm 3 mps 732 mmHg 35%
    14:00 +25°C° 0 mm 3 mps 731 mmHg 35%
    15:00 +24°C° 0.1 mm 2 mps 731 mmHg 38%
    16:00 +24°C° 0.1 mm 2 mps 731 mmHg 42%
    17:00 +23°C° 0.1 mm 2 mps 731 mmHg 45%
    18:00 +23°C° 0 mm 2 mps 731 mmHg 48%
    19:00 +23°C° 0 mm 2 mps 732 mmHg 51%
    20:00 +22°C° 0 mm 1 mps 732 mmHg 54%
    21:00 +22°C° 0 mm 1 mps 732 mmHg 53%
    22:00 +22°C° 0 mm 1 mps 732 mmHg 53%
    23:00 +23°C° 0 mm 1 mps 732 mmHg 52%

    28 March, Thursday

    Time Temperature Precipitation Wind Pressure Humidity
    00:00 +21°C° 0 mm 2 mps 731 mmHg 53%
    01:00 +21°C° 0 mm 2 mps 731 mmHg 55%
    02:00 +21°C° 0 mm 3 mps 731 mmHg 56%
    03:00 +20°C° 0 mm 4 mps 731 mmHg 60%
    04:00 +20°C° 0 mm 4 mps 731 mmHg 63%
    05:00 +19°C° 0 mm 4 mps 731 mmHg 67%
    06:00 +19°C° 0 mm 4 mps 732 mmHg 67%
    07:00 +19°C° 0 mm 4 mps 732 mmHg 68%
    08:00 +19°C° 0 mm 4 mps 733 mmHg 68%
    09:00 +20°C° 0 mm 4 mps 733 mmHg 65%
    10:00 +20°C° 0 mm 4 mps 733 mmHg 62%
    11:00 +21°C° 0 mm 3 mps 732 mmHg 58%
    12:00 +23°C° 0 mm 2 mps 732 mmHg 56%
    13:00 +23°C° 0 mm 2 mps 732 mmHg 53%
    14:00 +24°C° 0 mm 1 mps 731 mmHg 51%
    15:00 +25°C° 0 mm 1 mps 731 mmHg 47%
    16:00 +26°C° 0 mm 1 mps 732 mmHg 43%
    17:00 +26°C° 0 mm 1 mps 732 mmHg 40%
    18:00 +25°C° 0 mm 3 mps 732 mmHg 43%
    19:00 +23°C° 0 mm 4 mps 733 mmHg 46%
    20:00 +22°C° 0 mm 5 mps 733 mmHg 49%
    21:00 +21°C° 0 mm 6 mps 733 mmHg 56%
    22:00 +20°C° 0 mm 8 mps 733 mmHg 64%
    23:00 +18°C° 0 mm 9 mps 734 mmHg 71%

    29 March, Friday

    Time Temperature Precipitation Wind Pressure Humidity
    00:00 +17°C° 0 mm 9 mps 734 mmHg 73%
    01:00 +16°C° 0 mm 8 mps 734 mmHg 74%
    02:00 +15°C° 0 mm 8 mps 734 mmHg 76%
    03:00 +15°C° 0 mm 7 mps 734 mmHg 76%
    04:00 +14°C° 0 mm 7 mps 734 mmHg 76%
    05:00 +14°C° 0 mm 7 mps 735 mmHg 76%
    06:00 +14°C° 0 mm 7 mps 735 mmHg 73%
    07:00 +14°C° 0 mm 7 mps 736 mmHg 71%
    08:00 +14°C° 0 mm 7 mps 736 mmHg 69%
    09:00 +16°C° 0 mm 7 mps 736 mmHg 62%
    10:00 +18°C° 0 mm 7 mps 736 mmHg 55%
    11:00 +21°C° 0 mm 7 mps 736 mmHg 48%
    12:00 +22°C° 0 mm 6 mps 735 mmHg 45%
    13:00 +24°C° 0 mm 6 mps 734 mmHg 41%
    14:00 +26°C° 0 mm 6 mps 734 mmHg 38%
    15:00 +26°C° 0 mm 6 mps 734 mmHg 36%
    16:00 +26°C° 0 mm 6 mps 734 mmHg 34%
    17:00 +26°C° 0 mm 6 mps 734 mmHg 33%
    18:00 +24°C° 0 mm 6 mps 734 mmHg 34%
    19:00 +23°C° 0 mm 7 mps 735 mmHg 35%
    20:00 +21°C° 0 mm 7 mps 735 mmHg 36%
    21:00 +20°C° 0 mm 7 mps 735 mmHg 41%
    22:00 +18°C° 0 mm 7 mps 735 mmHg 47%
    23:00 +17°C° 0 mm 8 mps 736 mmHg 53%
    Show more